Location: Vihti�l�
(61.3833°N, 23.0667°E)
Time: 04:37:07
(UTC+00:00)

Cosmos 1515 Rocket - Pass Details

Date: 29 November 2020
Orbit: 605 x 631 km, 82.5° (Epoch: 22 January)

Event Time Altitude Azimuth Distance (km) Brightness Sun altitude
Exits shadow 04:09:38 40° 245° (WSW) 944 4.1 -19.6°
Drops below altitude 10° 04:13:15 10° 196° (SSW) 2,015 6.1 -19.1°
Sets 04:15:33 0° 190° (S) 2,918 7.0 -18.9°
